RAJ402 WADD-WARR

Flight info

Callsign RAJ402
Flight time 0h 45m
Altitude 30000
Route BLI MOVMO SBR
Aircraft C130/M-SDFGHIRWY/EB2

Departure

Time 2026-05-04 03:52
Airport Denpasar I Gusti Ngurah Rai International Airport (WADD)

Arrival

Time 2026-05-04 04:37
Airport Juanda International Airport (WARR)
Time Latitude Longitude Altitude Speed Heading
2026-05-04 03:51 -8.65903 115.35889 9570 ft 283 kts
2026-05-04 03:52 -8.63921 115.36017 10270 ft 285 kts
2026-05-04 03:52 -8.61937 115.36128 10961 ft 287 kts
2026-05-04 03:52 -8.59942 115.36231 11654 ft 290 kts
2026-05-04 03:52 -8.57916 115.36334 12363 ft 292 kts
2026-05-04 03:53 -8.55864 115.36439 13107 ft 295 kts
2026-05-04 03:53 -8.53815 115.36549 13840 ft 298 kts
2026-05-04 03:53 -8.51731 115.36662 14525 ft 299 kts
2026-05-04 03:53 -8.49669 115.36780 15205 ft 300 kts
2026-05-04 03:54 -8.47577 115.36903 15919 ft 301 kts
2026-05-04 03:54 -8.45414 115.37033 16070 ft 323 kts
2026-05-04 03:54 -8.43082 115.37080 16074 ft 345 kts 353°
2026-05-04 03:54 -8.40767 115.36324 16086 ft 363 kts 331°
2026-05-04 03:55 -8.38760 115.34734 16054 ft 369 kts 315°
2026-05-04 03:55 -8.36956 115.32885 15963 ft 375 kts 313°
2026-05-04 03:55 -8.35167 115.30956 15970 ft 377 kts 311°
2026-05-04 03:55 -8.33746 115.28733 15961 ft 377 kts 291°
2026-05-04 03:56 -8.33172 115.26166 15968 ft 376 kts 276°
2026-05-04 03:56 -8.32926 115.23523 15975 ft 377 kts 273°
2026-05-04 03:56 -8.32742 115.20881 15978 ft 378 kts 272°
2026-05-04 03:56 -8.32590 115.18262 15979 ft 378 kts 272°
2026-05-04 03:57 -8.32443 115.15594 15977 ft 379 kts 272°
2026-05-04 03:57 -8.32306 115.12933 15975 ft 379 kts 271°
2026-05-04 03:57 -8.32173 115.10267 15975 ft 379 kts 271°
2026-05-04 03:57 -8.32048 115.07638 15979 ft 379 kts 272°
2026-05-04 03:58 -8.31783 115.02312 15976 ft 379 kts 272°
2026-05-04 03:58 -8.31649 114.99642 15984 ft 380 kts 271°
2026-05-04 03:58 -8.31516 114.96959 15974 ft 381 kts 272°
2026-05-04 03:59 -8.31387 114.94319 15975 ft 381 kts 271°
2026-05-04 03:59 -8.31254 114.91646 15975 ft 381 kts 271°
2026-05-04 03:59 -8.31167 114.89865 15975 ft 381 kts 271°
2026-05-04 03:59 -8.30800 114.86306 15968 ft 381 kts 279°
2026-05-04 04:00 -8.30293 114.83714 15968 ft 380 kts 281°
2026-05-04 04:00 -8.29745 114.81103 15969 ft 380 kts 281°
2026-05-04 04:00 -8.29364 114.79334 15968 ft 380 kts 282°
2026-05-04 04:00 -8.28803 114.76760 15960 ft 380 kts 281°
2026-05-04 04:01 -8.28231 114.74142 15961 ft 380 kts 282°
2026-05-04 04:01 -8.27658 114.71533 15964 ft 380 kts 282°
2026-05-04 04:01 -8.27084 114.68916 15962 ft 380 kts 282°
2026-05-04 04:01 -8.26520 114.66331 15969 ft 380 kts 282°
2026-05-04 04:02 -8.25949 114.63725 15968 ft 380 kts 282°
2026-05-04 04:02 -8.25374 114.61112 15966 ft 380 kts 282°
2026-05-04 04:02 -8.24800 114.58507 15966 ft 380 kts 282°
2026-05-04 04:02 -8.24237 114.55929 15966 ft 380 kts 282°
2026-05-04 04:03 -8.23664 114.53317 15967 ft 381 kts 282°
2026-05-04 04:03 -8.23088 114.50698 15967 ft 381 kts 282°
2026-05-04 04:03 -8.22516 114.48080 15975 ft 381 kts 282°
2026-05-04 04:03 -8.21951 114.45498 15975 ft 381 kts 282°
2026-05-04 04:04 -8.21379 114.42889 15972 ft 381 kts 282°
2026-05-04 04:04 -8.20805 114.40269 15980 ft 381 kts 282°
2026-05-04 04:04 -8.20229 114.37647 15978 ft 381 kts 282°
2026-05-04 04:04 -8.19653 114.35031 15981 ft 381 kts 282°
2026-05-04 04:05 -8.19079 114.32410 15983 ft 382 kts 282°
2026-05-04 04:05 -8.18510 114.29818 15983 ft 382 kts 282°
2026-05-04 04:05 -8.17932 114.27192 15986 ft 383 kts 282°
2026-05-04 04:05 -8.17110 114.24635 15976 ft 383 kts 295°
2026-05-04 04:06 -8.15872 114.22241 15982 ft 383 kts 298°
2026-05-04 04:06 -8.14596 114.19917 15984 ft 383 kts 299°
2026-05-04 04:06 -8.13280 114.17574 15985 ft 383 kts 300°
2026-05-04 04:06 -8.11955 114.15238 15986 ft 383 kts 300°
2026-05-04 04:07 -8.10645 114.12938 15989 ft 384 kts 300°
2026-05-04 04:07 -8.09311 114.10594 15987 ft 384 kts 300°
2026-05-04 04:07 -8.07977 114.08255 15990 ft 384 kts 300°
2026-05-04 04:07 -8.06658 114.05944 15996 ft 384 kts 300°
2026-05-04 04:08 -8.05324 114.03602 15994 ft 384 kts 300°
2026-05-04 04:08 -8.03995 114.01263 15993 ft 384 kts 300°
2026-05-04 04:08 -8.02662 113.98919 15986 ft 383 kts 300°
2026-05-04 04:08 -8.01337 113.96582 15990 ft 383 kts 300°
2026-05-04 04:09 -7.99892 113.94365 15976 ft 383 kts 312°
2026-05-04 04:09 -7.97789 113.92729 15970 ft 382 kts 334°
2026-05-04 04:09 -7.95279 113.91888 15977 ft 379 kts 348°
2026-05-04 04:09 -7.92694 113.91330 15978 ft 379 kts 348°
2026-05-04 04:10 -7.90116 113.90709 15982 ft 380 kts 347°
2026-05-04 04:10 -7.87557 113.90068 15978 ft 379 kts 347°
2026-05-04 04:10 -7.85027 113.89433 15980 ft 379 kts 347°
2026-05-04 04:10 -7.82466 113.88790 15975 ft 379 kts 347°
2026-05-04 04:11 -7.79887 113.88141 15974 ft 379 kts 347°
2026-05-04 04:11 -7.77338 113.87481 15967 ft 379 kts 344°
2026-05-04 04:11 -7.75020 113.86293 15953 ft 381 kts 322°
2026-05-04 04:11 -7.73194 113.84343 15794 ft 376 kts 307°
2026-05-04 04:12 -7.71705 113.82217 15487 ft 374 kts 304°
2026-05-04 04:12 -7.70265 113.80035 15187 ft 373 kts 303°
2026-05-04 04:12 -7.68852 113.77843 14887 ft 372 kts 303°
2026-05-04 04:12 -7.67458 113.75651 14587 ft 371 kts 303°
2026-05-04 04:13 -7.66072 113.73460 14281 ft 371 kts 303°
2026-05-04 04:13 -7.64689 113.71260 14009 ft 370 kts 303°
2026-05-04 04:13 -7.63313 113.69069 13724 ft 369 kts 303°
2026-05-04 04:13 -7.61944 113.66881 13412 ft 368 kts 303°
2026-05-04 04:14 -7.60591 113.64715 13105 ft 367 kts 303°
2026-05-04 04:14 -7.59232 113.62542 12908 ft 363 kts 303°
2026-05-04 04:14 -7.57900 113.60406 12905 ft 355 kts 303°
2026-05-04 04:14 -7.56597 113.58315 12899 ft 349 kts 303°
2026-05-04 04:15 -7.55313 113.56253 12891 ft 345 kts 303°
2026-05-04 04:15 -7.54044 113.54217 12888 ft 341 kts 302°
2026-05-04 04:15 -7.52798 113.52217 12886 ft 339 kts 303°
2026-05-04 04:15 -7.51547 113.50207 12882 ft 337 kts 303°
2026-05-04 04:16 -7.50384 113.48170 12871 ft 335 kts 292°
2026-05-04 04:16 -7.49970 113.45871 12860 ft 334 kts 269°
2026-05-04 04:16 -7.50132 113.43538 12870 ft 333 kts 264°
2026-05-04 04:16 -7.50383 113.41252 12872 ft 332 kts 263°
2026-05-04 04:17 -7.50672 113.38939 12870 ft 332 kts 262°
2026-05-04 04:17 -7.50815 113.36621 12822 ft 326 kts 269°
2026-05-04 04:17 -7.50771 113.34384 12654 ft 312 kts 275°
2026-05-04 04:17 -7.50479 113.32255 12467 ft 301 kts 280°
2026-05-04 04:18 -7.50090 113.30220 12271 ft 294 kts 282°
2026-05-04 04:18 -7.49676 113.28222 12058 ft 288 kts 282°
2026-05-04 04:18 -7.49256 113.26258 11838 ft 284 kts 282°
2026-05-04 04:18 -7.48836 113.24320 11616 ft 281 kts 282°
2026-05-04 04:19 -7.48425 113.22428 11397 ft 278 kts 283°
2026-05-04 04:19 -7.48011 113.20527 11176 ft 276 kts 283°
2026-05-04 04:19 -7.47598 113.18641 10953 ft 274 kts 283°
2026-05-04 04:19 -7.47195 113.16794 10737 ft 272 kts 283°
2026-05-04 04:20 -7.46788 113.14935 10508 ft 270 kts 283°
2026-05-04 04:20 -7.46383 113.13084 10299 ft 269 kts 283°
2026-05-04 04:20 -7.45981 113.11249 10086 ft 268 kts 282°
2026-05-04 04:20 -7.45581 113.09424 9876 ft 266 kts 283°
2026-05-04 04:21 -7.45181 113.07602 9650 ft 265 kts 283°
2026-05-04 04:21 -7.44783 113.05787 9414 ft 264 kts 283°
2026-05-04 04:21 -7.44392 113.04004 9193 ft 261 kts 283°
2026-05-04 04:21 -7.44006 113.02247 8945 ft 253 kts 283°
2026-05-04 04:22 -7.43627 113.00525 8680 ft 249 kts 283°
2026-05-04 04:22 -7.43256 112.98846 8418 ft 246 kts 283°
2026-05-04 04:22 -7.42885 112.97164 8151 ft 244 kts 283°
2026-05-04 04:22 -7.42517 112.95505 7881 ft 242 kts 283°
2026-05-04 04:23 -7.42152 112.93859 7613 ft 239 kts 283°
2026-05-04 04:23 -7.41784 112.92207 7212 ft 243 kts 283°
2026-05-04 04:23 -7.41414 112.90552 6815 ft 246 kts 283°
2026-05-04 04:23 -7.41035 112.88864 6427 ft 247 kts 282°
2026-05-04 04:24 -7.40653 112.87172 6032 ft 246 kts 283°
2026-05-04 04:24 -7.40271 112.85483 5624 ft 245 kts 283°
2026-05-04 04:24 -7.39896 112.83833 5229 ft 244 kts 283°
2026-05-04 04:24 -7.39517 112.82170 4834 ft 243 kts 282°
2026-05-04 04:25 -7.39141 112.80518 4467 ft 242 kts 283°
2026-05-04 04:25 -7.38767 112.78864 4111 ft 241 kts 283°
2026-05-04 04:25 -7.38391 112.77224 3710 ft 241 kts 283°
2026-05-04 04:25 -7.37990 112.75491 3287 ft 263 kts 283°
2026-05-04 04:26 -7.37563 112.73648 2918 ft 275 kts 283°
2026-05-04 04:26 -7.37142 112.71742 2523 ft 282 kts 282°
2026-05-04 04:26 -7.36726 112.69835 2400 ft 278 kts 282°
2026-05-04 04:26 -7.36307 112.67956 2395 ft 271 kts 282°
2026-05-04 04:27 -7.35904 112.66124 2385 ft 264 kts 283°
2026-05-04 04:27 -7.35719 112.64303 2365 ft 261 kts 262°
2026-05-04 04:27 -7.36396 112.62639 2359 ft 258 kts 234°
2026-05-04 04:27 -7.37483 112.61204 2365 ft 255 kts 231°
2026-05-04 04:28 -7.38599 112.59837 2363 ft 254 kts 230°
2026-05-04 04:28 -7.39691 112.58437 2358 ft 253 kts 240°
2026-05-04 04:28 -7.40263 112.56761 2361 ft 254 kts 255°
2026-05-04 04:28 -7.40672 112.55029 2360 ft 253 kts 257°
2026-05-04 04:29 -7.40924 112.53308 2359 ft 251 kts 269°
2026-05-04 04:29 -7.40891 112.51543 2350 ft 251 kts 277°
2026-05-04 04:29 -7.40252 112.49938 2340 ft 249 kts 310°
2026-05-04 04:29 -7.38898 112.48935 2357 ft 245 kts 341°
2026-05-04 04:30 -7.37222 112.48658 2375 ft 244 kts 356°
2026-05-04 04:30 -7.35524 112.48575 2386 ft 245 kts 359°
2026-05-04 04:30 -7.33815 112.48531 2384 ft 245 kts 359°
2026-05-04 04:30 -7.32104 112.48513 2386 ft 246 kts
2026-05-04 04:31 -7.30408 112.48710 2378 ft 245 kts 21°
2026-05-04 04:31 -7.29080 112.49708 2373 ft 243 kts 54°
2026-05-04 04:31 -7.28365 112.51248 2338 ft 244 kts 71°
2026-05-04 04:31 -7.28019 112.52925 2252 ft 244 kts 84°
2026-05-04 04:32 -7.27853 112.54629 2272 ft 245 kts 86°
2026-05-04 04:32 -7.27726 112.56350 2229 ft 246 kts 87°
2026-05-04 04:32 -7.27619 112.58052 2189 ft 246 kts 86°
2026-05-04 04:32 -7.27509 112.59779 2144 ft 246 kts 86°
2026-05-04 04:33 -7.27403 112.61503 2107 ft 247 kts 86°
2026-05-04 04:33 -7.27326 112.63236 2051 ft 248 kts 89°
2026-05-04 04:33 -7.27470 112.64954 1798 ft 247 kts 101°
2026-05-04 04:33 -7.28026 112.66582 1425 ft 247 kts 118°
2026-05-04 04:34 -7.29011 112.67965 1531 ft 240 kts 132°
2026-05-04 04:34 -7.30320 112.69008 1389 ft 246 kts 148°
2026-05-04 04:34 -7.31888 112.69591 1402 ft 231 kts 171°
2026-05-04 04:34 -7.33440 112.69535 1328 ft 222 kts 188°
2026-05-04 04:35 -7.34953 112.69314 1035 ft 223 kts 176°
2026-05-04 04:35 -7.36355 112.69854 933 ft 217 kts 137°
2026-05-04 04:35 -7.37187 112.71128 647 ft 226 kts 106°
2026-05-04 04:35 -7.37322 112.72699 562 ft 214 kts 84°
2026-05-04 04:36 -7.37225 112.74071 487 ft 191 kts 90°
2026-05-04 04:36 -7.37389 112.75392 319 ft 188 kts 101°
2026-05-04 04:36 -7.37665 112.76637 202 ft 164 kts 99°
2026-05-04 04:36 -7.37838 112.77694 36 ft 146 kts 97°
2026-05-04 04:37 -7.38042 112.79658 24 ft 0 kts 305°